OAL114 LGAV-LICA

Flight info

Callsign OAL114
Flight time 1h 3m
Altitude FL360
Route KOR RILIN UN604 RUTOM M601 CRN
Aircraft B738/M-SDE3FGHIRWY/LB1

Departure

Time 2026-04-26 12:31
Airport Athens Eleftherios Venizelos International Airport (LGAV)

Arrival

Time 2026-04-26 13:34
Airport Lamezia Terme Sant'Eufemia International Airport (LICA)
Time Latitude Longitude Altitude Speed Heading
2026-04-26 12:14 37.93833 23.95065 300 ft 0 kts 308°
2026-04-26 12:17 37.93830 23.95071 302 ft 2 kts 307°
2026-04-26 12:17 37.93820 23.95087 301 ft 2 kts 307°
2026-04-26 12:18 37.93811 23.95103 299 ft 2 kts 307°
2026-04-26 12:18 37.93801 23.95119 300 ft 2 kts 287°
2026-04-26 12:18 37.93799 23.95138 301 ft 2 kts 252°
2026-04-26 12:18 37.93806 23.95156 299 ft 2 kts 217°
2026-04-26 12:19 37.93811 23.95160 299 ft 0 kts 215°
2026-04-26 12:19 37.93810 23.95160 299 ft 1 kts 215°
2026-04-26 12:20 37.93796 23.95147 300 ft 5 kts 216°
2026-04-26 12:20 37.93753 23.95107 301 ft 10 kts 217°
2026-04-26 12:20 37.93682 23.95038 299 ft 15 kts 217°
2026-04-26 12:20 37.93585 23.94946 300 ft 19 kts 217°
2026-04-26 12:21 37.93480 23.94847 302 ft 19 kts 217°
2026-04-26 12:21 37.93379 23.94750 303 ft 18 kts 217°
2026-04-26 12:21 37.93281 23.94657 300 ft 17 kts 217°
2026-04-26 12:21 37.93190 23.94569 303 ft 14 kts 217°
2026-04-26 12:22 37.93172 23.94479 302 ft 11 kts 302°
2026-04-26 12:22 37.93215 23.94402 300 ft 11 kts 307°
2026-04-26 12:22 37.93260 23.94328 300 ft 11 kts 307°
2026-04-26 12:22 37.93281 23.94239 302 ft 11 kts 248°
2026-04-26 12:23 37.93224 23.94175 301 ft 12 kts 216°
2026-04-26 12:23 37.93149 23.94107 300 ft 14 kts 216°
2026-04-26 12:23 37.93096 23.94012 303 ft 14 kts 282°
2026-04-26 12:23 37.93149 23.93913 301 ft 13 kts 307°
2026-04-26 12:24 37.93203 23.93821 301 ft 13 kts 307°
2026-04-26 12:24 37.93257 23.93732 300 ft 13 kts 307°
2026-04-26 12:24 37.93308 23.93645 300 ft 12 kts 307°
2026-04-26 12:25 37.93409 23.93473 300 ft 13 kts 306°
2026-04-26 12:25 37.93414 23.93373 299 ft 13 kts 224°
2026-04-26 12:25 37.93345 23.93304 298 ft 12 kts 217°
2026-04-26 12:25 37.93276 23.93240 299 ft 12 kts 216°
2026-04-26 12:26 37.93209 23.93177 297 ft 12 kts 217°
2026-04-26 12:26 37.93145 23.93115 297 ft 12 kts 217°
2026-04-26 12:26 37.93074 23.93049 300 ft 14 kts 217°
2026-04-26 12:26 37.92994 23.92973 300 ft 15 kts 217°
2026-04-26 12:27 37.92902 23.92886 301 ft 18 kts 217°
2026-04-26 12:27 37.92803 23.92792 300 ft 18 kts 217°
2026-04-26 12:27 37.92707 23.92701 303 ft 17 kts 217°
2026-04-26 12:27 37.92611 23.92609 301 ft 17 kts 217°
2026-04-26 12:28 37.92514 23.92517 301 ft 18 kts 217°
2026-04-26 12:28 37.92415 23.92423 300 ft 17 kts 217°
2026-04-26 12:28 37.92319 23.92333 303 ft 17 kts 217°
2026-04-26 12:28 37.92228 23.92245 301 ft 16 kts 217°
2026-04-26 12:29 37.92139 23.92162 302 ft 16 kts 218°
2026-04-26 12:29 37.92127 23.92048 304 ft 15 kts 305°
2026-04-26 12:29 37.92250 23.91990 304 ft 9 kts 36°
2026-04-26 12:30 37.92389 23.92124 305 ft 55 kts 37°
2026-04-26 12:30 37.92880 23.92589 296 ft 120 kts 37°
2026-04-26 12:30 37.93689 23.93360 364 ft 165 kts 37°
2026-04-26 12:31 37.95575 23.95119 1718 ft 170 kts 36°
2026-04-26 12:31 37.96550 23.96017 2310 ft 185 kts 35°
2026-04-26 12:31 37.97678 23.97054 2528 ft 213 kts 34°
2026-04-26 12:31 37.98948 23.98218 2730 ft 236 kts 34°
2026-04-26 12:32 38.00307 23.99463 3250 ft 247 kts 34°
2026-04-26 12:32 38.01703 24.00744 4012 ft 249 kts 34°
2026-04-26 12:32 38.04548 24.03349 5431 ft 257 kts 33°
2026-04-26 12:33 38.06085 24.04515 6080 ft 259 kts 15°
2026-04-26 12:33 38.07862 24.04724 6622 ft 263 kts 347°
2026-04-26 12:33 38.09533 24.03777 7092 ft 269 kts 318°
2026-04-26 12:33 38.10643 24.01890 7728 ft 271 kts 290°
2026-04-26 12:34 38.10945 23.99542 8433 ft 272 kts 268°
2026-04-26 12:34 38.10778 23.97138 9122 ft 276 kts 263°
2026-04-26 12:34 38.10516 23.94716 9798 ft 279 kts 262°
2026-04-26 12:34 38.10232 23.92259 10343 ft 288 kts 262°
2026-04-26 12:35 38.09934 23.89654 10479 ft 310 kts 262°
2026-04-26 12:35 38.09622 23.86858 10629 ft 330 kts 263°
2026-04-26 12:35 38.09298 23.83901 10844 ft 347 kts 263°
2026-04-26 12:35 38.08968 23.80839 11292 ft 355 kts 263°
2026-04-26 12:36 38.08635 23.77721 11915 ft 358 kts 263°
2026-04-26 12:36 38.08302 23.74582 12510 ft 363 kts 264°
2026-04-26 12:36 38.07966 23.71401 13153 ft 366 kts 264°
2026-04-26 12:36 38.07628 23.68187 13778 ft 370 kts 264°
2026-04-26 12:37 38.07286 23.64941 14326 ft 375 kts 264°
2026-04-26 12:37 38.06939 23.61660 14944 ft 377 kts 264°
2026-04-26 12:37 38.06588 23.58350 15572 ft 381 kts 264°
2026-04-26 12:37 38.06234 23.55015 16186 ft 384 kts 264°
2026-04-26 12:38 38.05875 23.51649 16782 ft 388 kts 264°
2026-04-26 12:38 38.05513 23.48251 17376 ft 391 kts 264°
2026-04-26 12:38 38.05146 23.44825 17979 ft 394 kts 264°
2026-04-26 12:38 38.04774 23.41362 18487 ft 400 kts 264°
2026-04-26 12:39 38.04398 23.37869 19027 ft 401 kts 264°
2026-04-26 12:39 38.04019 23.34360 19554 ft 404 kts 264°
2026-04-26 12:39 38.03636 23.30824 20042 ft 407 kts 264°
2026-04-26 12:39 38.03248 23.27258 20526 ft 411 kts 264°
2026-04-26 12:40 38.02857 23.23663 21009 ft 414 kts 264°
2026-04-26 12:40 38.02461 23.20042 21491 ft 417 kts 264°
2026-04-26 12:40 38.02061 23.16393 21962 ft 420 kts 264°
2026-04-26 12:40 38.01658 23.12723 22423 ft 423 kts 264°
2026-04-26 12:41 38.01250 23.09023 22858 ft 426 kts 264°
2026-04-26 12:41 38.00838 23.05300 23374 ft 427 kts 264°
2026-04-26 12:41 38.00424 23.01568 23775 ft 430 kts 264°
2026-04-26 12:41 38.00008 22.97819 24136 ft 432 kts 264°
2026-04-26 12:42 37.99587 22.94047 24498 ft 434 kts 264°
2026-04-26 12:42 37.99162 22.90251 24868 ft 436 kts 264°
2026-04-26 12:42 37.98736 22.86448 25224 ft 439 kts 264°
2026-04-26 12:42 37.98304 22.82614 25583 ft 441 kts 264°
2026-04-26 12:43 37.97871 22.78769 25930 ft 443 kts 264°
2026-04-26 12:43 37.97435 22.74915 26270 ft 444 kts 264°
2026-04-26 12:43 37.96994 22.71030 26603 ft 447 kts 264°
2026-04-26 12:43 37.96737 22.67120 26913 ft 446 kts 272°
2026-04-26 12:44 37.96960 22.63214 27234 ft 445 kts 282°
2026-04-26 12:44 37.97566 22.59379 27581 ft 445 kts 284°
2026-04-26 12:44 37.98216 22.55541 27881 ft 447 kts 284°
2026-04-26 12:44 37.98872 22.51687 28180 ft 450 kts 284°
2026-04-26 12:45 37.99524 22.47808 28480 ft 452 kts 284°
2026-04-26 12:45 38.00167 22.43911 28777 ft 453 kts 284°
2026-04-26 12:45 38.00802 22.40001 29098 ft 454 kts 283°
2026-04-26 12:45 38.01430 22.36086 29456 ft 454 kts 283°
2026-04-26 12:46 38.02052 22.32182 29892 ft 452 kts 283°
2026-04-26 12:46 38.02670 22.28290 30287 ft 450 kts 283°
2026-04-26 12:46 38.03285 22.24407 30602 ft 450 kts 283°
2026-04-26 12:46 38.03899 22.20523 30895 ft 450 kts 283°
2026-04-26 12:47 38.04513 22.16638 31212 ft 450 kts 283°
2026-04-26 12:47 38.05124 22.12758 31517 ft 449 kts 283°
2026-04-26 12:47 38.05733 22.08882 31834 ft 448 kts 283°
2026-04-26 12:47 38.06340 22.05016 32162 ft 447 kts 283°
2026-04-26 12:48 38.06944 22.01155 32452 ft 447 kts 282°
2026-04-26 12:48 38.07548 21.97294 32732 ft 447 kts 282°
2026-04-26 12:48 38.08149 21.93436 33040 ft 446 kts 282°
2026-04-26 12:48 38.08748 21.89582 33343 ft 446 kts 282°
2026-04-26 12:49 38.09346 21.85729 33628 ft 446 kts 282°
2026-04-26 12:49 38.09942 21.81881 33940 ft 445 kts 282°
2026-04-26 12:49 38.10535 21.78043 34227 ft 443 kts 282°
2026-04-26 12:49 38.11125 21.74217 34497 ft 442 kts 282°
2026-04-26 12:50 38.11711 21.70400 34763 ft 441 kts 282°
2026-04-26 12:50 38.12295 21.66596 35033 ft 439 kts 282°
2026-04-26 12:50 38.12875 21.62803 35290 ft 438 kts 282°
2026-04-26 12:50 38.13453 21.59019 35529 ft 437 kts 282°
2026-04-26 12:51 38.14029 21.55242 35765 ft 436 kts 281°
2026-04-26 12:51 38.14602 21.51474 36008 ft 435 kts 281°
2026-04-26 12:51 38.15175 21.47700 36031 ft 438 kts 281°
2026-04-26 12:52 38.16306 21.40130 36040 ft 436 kts 281°
2026-04-26 12:52 38.17336 21.32594 36045 ft 432 kts 280°
2026-04-26 12:53 38.18336 21.25107 36054 ft 429 kts 280°
2026-04-26 12:53 38.19336 21.17654 36051 ft 428 kts 280°
2026-04-26 12:54 38.20335 21.10220 36051 ft 428 kts 280°
2026-04-26 12:54 38.21331 21.02781 36059 ft 429 kts 280°
2026-04-26 12:55 38.22328 20.95305 36064 ft 431 kts 280°
2026-04-26 12:55 38.23325 20.87784 36062 ft 433 kts 279°
2026-04-26 12:56 38.24321 20.80230 36056 ft 435 kts 279°
2026-04-26 12:56 38.25317 20.72646 36073 ft 436 kts 279°
2026-04-26 12:57 38.26308 20.65049 36073 ft 437 kts 279°
2026-04-26 12:57 38.27298 20.57431 36072 ft 437 kts 279°
2026-04-26 12:58 38.28769 20.46022 36074 ft 436 kts 279°
2026-04-26 12:58 38.29741 20.38442 36077 ft 434 kts 279°
2026-04-26 12:59 38.30706 20.30879 36077 ft 433 kts 279°
2026-04-26 12:59 38.31679 20.23342 36077 ft 431 kts 280°
2026-04-26 13:00 38.32905 20.15903 36084 ft 430 kts 282°
2026-04-26 13:00 38.34201 20.08492 36090 ft 429 kts 281°
2026-04-26 13:01 38.35464 20.01089 36084 ft 428 kts 281°
2026-04-26 13:01 38.36699 19.93683 36086 ft 428 kts 281°
2026-04-26 13:02 38.37923 19.86275 36086 ft 429 kts 281°
2026-04-26 13:02 38.39143 19.78849 36091 ft 429 kts 281°
2026-04-26 13:03 38.40363 19.71404 36095 ft 430 kts 281°
2026-04-26 13:03 38.41580 19.63939 36091 ft 431 kts 281°
2026-04-26 13:04 38.42796 19.56455 36088 ft 432 kts 281°
2026-04-26 13:04 38.44010 19.48953 36096 ft 433 kts 281°
2026-04-26 13:05 38.45221 19.41434 36091 ft 434 kts 280°
2026-04-26 13:05 38.46428 19.33904 36094 ft 434 kts 280°
2026-04-26 13:06 38.47632 19.26365 36098 ft 434 kts 280°
2026-04-26 13:06 38.48831 19.18823 36097 ft 434 kts 280°
2026-04-26 13:07 38.50024 19.11283 36104 ft 434 kts 280°
2026-04-26 13:07 38.51213 19.03747 36096 ft 434 kts 279°
2026-04-26 13:08 38.52638 18.96237 35521 ft 440 kts 286°
2026-04-26 13:08 38.53600 18.92542 34876 ft 440 kts 287°
2026-04-26 13:08 38.54599 18.88855 34278 ft 440 kts 287°
2026-04-26 13:09 38.55598 18.85173 33748 ft 438 kts 287°
2026-04-26 13:09 38.56577 18.81519 33256 ft 434 kts 287°
2026-04-26 13:09 38.57535 18.77891 32777 ft 430 kts 287°
2026-04-26 13:09 38.58473 18.74293 32334 ft 426 kts 286°
2026-04-26 13:10 38.59396 18.70726 31894 ft 422 kts 286°
2026-04-26 13:10 38.60307 18.67188 31472 ft 418 kts 286°
2026-04-26 13:10 38.61208 18.63680 31036 ft 414 kts 286°
2026-04-26 13:10 38.62100 18.60199 30614 ft 411 kts 287°
2026-04-26 13:11 38.62985 18.56745 30194 ft 408 kts 287°
2026-04-26 13:11 38.63863 18.53317 29712 ft 405 kts 287°
2026-04-26 13:11 38.64732 18.49918 29259 ft 401 kts 287°
2026-04-26 13:11 38.65590 18.46558 28827 ft 396 kts 287°
2026-04-26 13:12 38.66439 18.43231 28401 ft 392 kts 287°
2026-04-26 13:12 38.67278 18.39936 27963 ft 389 kts 287°
2026-04-26 13:12 38.68109 18.36669 27542 ft 385 kts 287°
2026-04-26 13:12 38.68931 18.33430 27123 ft 382 kts 287°
2026-04-26 13:13 38.69747 18.30217 26711 ft 379 kts 287°
2026-04-26 13:13 38.70555 18.27029 26304 ft 376 kts 287°
2026-04-26 13:13 38.71356 18.23865 25900 ft 373 kts 287°
2026-04-26 13:13 38.72149 18.20722 25500 ft 370 kts 287°
2026-04-26 13:14 38.72930 18.17598 25102 ft 368 kts 287°
2026-04-26 13:14 38.73703 18.14492 24709 ft 366 kts 287°
2026-04-26 13:14 38.74471 18.11402 24314 ft 364 kts 287°
2026-04-26 13:14 38.75234 18.08329 23922 ft 362 kts 287°
2026-04-26 13:15 38.75993 18.05270 23496 ft 360 kts 287°
2026-04-26 13:15 38.76748 18.02226 23042 ft 358 kts 287°
2026-04-26 13:15 38.77497 17.99201 22621 ft 356 kts 287°
2026-04-26 13:15 38.78240 17.96199 22232 ft 353 kts 287°
2026-04-26 13:16 38.78975 17.93222 21841 ft 350 kts 287°
2026-04-26 13:16 38.79708 17.90254 21453 ft 350 kts 287°
2026-04-26 13:16 38.80438 17.87292 21067 ft 349 kts 287°
2026-04-26 13:16 38.81170 17.84314 20684 ft 353 kts 287°
2026-04-26 13:17 38.82655 17.78276 19893 ft 355 kts 287°
2026-04-26 13:17 38.83392 17.75272 19499 ft 353 kts 287°
2026-04-26 13:18 38.84851 17.69316 18719 ft 349 kts 287°
2026-04-26 13:18 38.85574 17.66359 18326 ft 347 kts 287°
2026-04-26 13:18 38.87009 17.60484 17478 ft 344 kts 287°
2026-04-26 13:19 38.87719 17.57573 17084 ft 341 kts 287°
2026-04-26 13:19 38.88423 17.54681 16699 ft 339 kts 287°
2026-04-26 13:19 38.89122 17.51808 16315 ft 337 kts 287°
2026-04-26 13:19 38.89815 17.48957 15946 ft 335 kts 287°
2026-04-26 13:20 38.90503 17.46118 15575 ft 333 kts 287°
2026-04-26 13:20 38.91189 17.43289 15215 ft 331 kts 287°
2026-04-26 13:20 38.91869 17.40478 14836 ft 330 kts 287°
2026-04-26 13:20 38.92546 17.37679 14471 ft 328 kts 287°
2026-04-26 13:21 38.93220 17.34889 14102 ft 327 kts 287°
2026-04-26 13:21 38.93667 17.33033 13849 ft 327 kts 287°
2026-04-26 13:21 38.94559 17.29333 13307 ft 325 kts 288°
2026-04-26 13:21 38.95222 17.26576 12923 ft 323 kts 288°
2026-04-26 13:22 38.95883 17.23824 12547 ft 322 kts 288°
2026-04-26 13:22 38.96539 17.21093 12182 ft 320 kts 288°
2026-04-26 13:22 38.97191 17.18378 11827 ft 318 kts 288°
2026-04-26 13:22 38.97836 17.15682 11463 ft 316 kts 288°
2026-04-26 13:23 38.98479 17.12995 11106 ft 315 kts 288°
2026-04-26 13:23 38.99108 17.10308 10754 ft 314 kts 284°
2026-04-26 13:23 38.99201 17.07553 10595 ft 309 kts 263°
2026-04-26 13:23 38.98560 17.04947 10440 ft 304 kts 250°
2026-04-26 13:24 38.97741 17.02490 10286 ft 297 kts 248°
2026-04-26 13:24 38.96924 17.00102 10160 ft 289 kts 248°
2026-04-26 13:24 38.96125 16.97765 9934 ft 285 kts 248°
2026-04-26 13:24 38.95333 16.95434 9645 ft 284 kts 248°
2026-04-26 13:25 38.94551 16.93119 9306 ft 284 kts 249°
2026-04-26 13:25 38.93769 16.90793 9005 ft 283 kts 249°
2026-04-26 13:25 38.92991 16.88478 8712 ft 283 kts 249°
2026-04-26 13:25 38.92217 16.86167 8442 ft 282 kts 248°
2026-04-26 13:26 38.91444 16.83865 8155 ft 282 kts 249°
2026-04-26 13:26 38.90674 16.81569 7869 ft 278 kts 249°
2026-04-26 13:26 38.89920 16.79322 7601 ft 272 kts 249°
2026-04-26 13:26 38.89175 16.77099 7347 ft 270 kts 249°
2026-04-26 13:27 38.88434 16.74893 7100 ft 269 kts 249°
2026-04-26 13:27 38.87695 16.72694 6845 ft 270 kts 249°
2026-04-26 13:27 38.86952 16.70485 6556 ft 269 kts 249°
2026-04-26 13:27 38.86213 16.68286 6290 ft 269 kts 248°
2026-04-26 13:28 38.85636 16.66028 5959 ft 265 kts 267°
2026-04-26 13:28 38.85826 16.63727 5731 ft 259 kts 283°
2026-04-26 13:28 38.86204 16.61472 5424 ft 260 kts 282°
2026-04-26 13:28 38.86524 16.59199 5124 ft 257 kts 279°
2026-04-26 13:29 38.86792 16.56956 4779 ft 252 kts 278°
2026-04-26 13:29 38.86957 16.55491 4550 ft 247 kts 278°
2026-04-26 13:29 38.87275 16.52665 4118 ft 234 kts 277°
2026-04-26 13:29 38.87503 16.50646 3823 ft 225 kts 277°
2026-04-26 13:30 38.87723 16.48710 3561 ft 216 kts 278°
2026-04-26 13:30 38.87938 16.46827 3262 ft 211 kts 277°
2026-04-26 13:30 38.88148 16.45000 2991 ft 205 kts 277°
2026-04-26 13:30 38.88352 16.43227 2719 ft 195 kts 277°
2026-04-26 13:31 38.88542 16.41561 2482 ft 184 kts 276°
2026-04-26 13:31 38.88723 16.39977 2249 ft 174 kts 277°
2026-04-26 13:31 38.88890 16.38502 2050 ft 161 kts 276°
2026-04-26 13:31 38.89048 16.37137 1869 ft 148 kts 276°
2026-04-26 13:32 38.89201 16.35799 1633 ft 151 kts 276°
2026-04-26 13:32 38.89352 16.34488 1401 ft 147 kts 276°
2026-04-26 13:32 38.89495 16.33247 1210 ft 135 kts 278°
2026-04-26 13:32 38.89635 16.32033 1052 ft 140 kts 278°
2026-04-26 13:33 38.89779 16.30796 855 ft 139 kts 277°
2026-04-26 13:33 38.89918 16.29581 671 ft 137 kts 278°
2026-04-26 13:33 38.90062 16.28338 484 ft 143 kts 278°
2026-04-26 13:33 38.90208 16.27080 305 ft 143 kts 277°
2026-04-26 13:34 38.90352 16.25838 89 ft 138 kts 277°
2026-04-26 13:34 38.90479 16.24716 36 ft 108 kts 279°
2026-04-26 13:34 38.90562 16.24030 30 ft 47 kts 278°
2026-04-26 13:34 38.90586 16.23838 28 ft 27 kts 279°
2026-04-26 13:35 38.90669 16.23598 29 ft 19 kts 309°
2026-04-26 13:35 38.90741 16.23490 27 ft 15 kts 328°
2026-04-26 13:35 38.90821 16.23510 27 ft 12 kts 50°
2026-04-26 13:35 38.90835 16.23617 28 ft 14 kts 97°
2026-04-26 13:36 38.90820 16.23748 29 ft 15 kts 98°
2026-04-26 13:36 38.90805 16.23880 30 ft 15 kts 98°
2026-04-26 13:36 38.90791 16.24007 30 ft 14 kts 98°
2026-04-26 13:36 38.90779 16.24128 31 ft 13 kts 93°
2026-04-26 13:37 38.90818 16.24231 32 ft 13 kts 54°
2026-04-26 13:37 38.90824 16.24336 31 ft 10 kts 97°
2026-04-26 13:37 38.90817 16.24426 34 ft 10 kts 72°
2026-04-26 13:37 38.90862 16.24441 34 ft 7 kts 15°
2026-04-26 13:38 38.90874 16.24473 34 ft 4 kts 139°
2026-04-26 13:38 38.90858 16.24468 34 ft 0 kts 211°